Location: Newark
(36.1358°N, 115.1208°W)
Time: 15:32:09
(UTC+00:00)

Vanguard 1 Rocket - Pass Details

Date: 24 February 2020
Orbit: 650 x 4227 km, 34.3° (Epoch: 30 March)

Event Time Altitude Azimuth Distance (km) Brightness Sun altitude
Rises 05:08:38 0° 194° (SSW) 7,701 12.0 -44.2°
Enters shadow 05:16:04 - 180° (S) 6,287 11.4 -45.5°
Reaches altitude 10° 05:18:29 10° 174° (S) 5,844 - -46.0°
Maximum altitude 05:25:15 14° 150° (SSE) 4,818 - -47.2°
Drops below altitude 10° 05:30:37 10° 124° (SE) 4,475 - -48.1°
Sets 05:35:54 0° 100° (E) 4,786 - -49.0°
